GFSGBSN_2pvu_pres_168.txt.gz
Presure
172 165 150 171 159 160 165 166 151 158 170 112 150 172 182 214 178 178 190 166 142 148 161 164 154 140 138 190 166 143 128 173 156 157 172 150 162 156 170 155 154 178 186 120 190 138 196
145 171 168 141 190 166 175 164 174 168 172 179 161 200 181 162 169 186 143 170 169 155 164 155 161 149 160 170 158 143 169 128 159 126 133 164 159 123 171 169 194 153 182 158 188 177 187
171 151 153 165 178 144 161 191 178 205 164 133 162 191 186 173 174 185 179 140 169 154 170 161 160 105 161 164 163 144 173 158 129 152 175 129 199 149 140 163 183 161 174 140 152 159 169
151 172 182 183 163 165 171 156 176 150 176 181 155 136 157 153 139 177 173 160 159 165 166 144 138 146 153 133 170 152 153 142 180 169 185 171 146 168 155 168 149 129 156 163 147 145 170
184 163 189 144 178 159 161 176 155 175 161 161 142 146 149 191 168 173 178 171 164 141 145 178 164 157 166 166 149 154 176 180 158 130 170 146 143 177 177 157 171 150 150 155 171 147 176
191 158 186 172 165 157 127 179 154 184 168 153 166 151 180 171 155 164 162 155 141 179 175 166 172 134 169 164 179 178 152 143 161 119 128 171 174 128 152 138 151 164 157 145 175 160 158
204 154 171 162 190 163 161 156 181 163 162 136 157 173 161 196 188 151 185 178 170 177 142 174 171 179 148 175 138 147 133 124 176 170 139 193 163 161 188 155 154 168 137 158 196 136 163
171 188 170 162 133 168 159 155 141 166 157 173 145 179 181 164 180 162 170 159 141 165 183 152 166 177 147 177 148 182 145 160 176 148 155 155 160 156 156 167 164 172 167 130 153 201 171
188 176 180 190 168 182 161 182 165 167 182 183 184 175 181 147 177 172 171 170 149 163 157 183 159 163 183 168 191 165 164 167 162 158 165 143 156 164 149 157 175 166 166 155 140 151 162
170 175 178 168 193 170 180 164 162 166 193 179 185 141 172 161 171 174 180 158 191 167 173 165 192 149 187 157 162 176 154 155 166 156 184 181 163 164 172 175 205 213 201 176 175 150 190
171 193 203 169 170 166 170 152 158 141 142 183 180 174 169 175 173 182 169 171 190 162 184 178 162 188 208 164 170 207 162 176 197 140 153 166 167 160 190 199 198 157 185 207 193 202 200
193 194 159 187 159 189 175 174 175 184 180 169 195 175 194 150 185 165 172 190 168 167 153 195 159 195 166 169 188 161 154 158 156 173 160 166 170 189 219 191 190 206 216 165 206 194 193
195 181 184 194 198 190 176 179 168 188 201 161 175 191 174 177 181 180 152 169 190 191 150 203 178 162 162 157 160 167 149 177 177 181 189 178 190 224 210 179 185 199 202 201 198 197 189
177 165 177 180 168 191 177 171 194 187 202 171 180 170 188 203 182 175 184 161 173 196 169 158 169 186 187 168 172 201 167 168 177 159 239 233 216 211 214 142 212 200 196 200 199 189 181
199 204 174 184 177 193 194 202 207 207 208 185 222 178 194 213 187 167 168 167 172 199 206 201 194 206 211 200 206 205 199 208 223 224 198 198 216 209 208 215 209 202 192 195 195 185 194
214 173 195 174 214 212 215 195 225 219 209 215 211 213 203 186 197 215 176 208 204 203 202 209 206 207 205 201 197 204 215 212 217 201 200 210 196 208 203 202 199 189 194 200 188 189 206
180 245 252 247 201 239 223 226 220 235 239 223 223 211 200 210 212 213 221 215 207 221 214 205 210 205 212 210 215 209 206 200 192 216 210 204 206 198 192 212 191 193 186 196 195 195 192
206 226 224 209 216 194 187 191 223 216 227 227 226 229 220 245 218 230 221 251 228 201 189 194 217 214 225 211 197 221 227 216 212 212 229 214 206 206 196 199 198 208 193 194 205 207 208
244 245 249 227 258 240 219 212 211 236 239 225 221 222 245 206 208 220 220 206 212 204 203 223 211 231 217 235 221 232 214 214 216 217 227 219 216 226 220 216 211 228 224 227 216 210 207
286 281 283 281 265 273 259 268 261 241 242 246 250 246 222 230 208 234 207 236 229 216 222 228 235 231 230 230 235 227 215 234 220 227 242 226 223 227 239 225 214 230 215 199 214 212 237
346 313 307 293 278 282 272 278 271 265 268 256 262 247 257 258 237 248 251 231 235 235 234 240 239 239 235 229 225 144 229 240 230 219 219 219 226 227 214 224 208 217 217 223 213 222 216
387 381 387 371 343 339 306 295 271 285 280 269 275 271 272 267 271 269 260 259 251 254 258 252 261 242 246 249 238 246 249 237 226 232 221 224 233 221 231 241 226 250 253 224 225 226 241
411 394 387 382 372 361 360 370 374 379 348 345 340 295 296 273 278 283 273 272 272 267 263 256 248 258 254 249 256 252 247 251 241 233 238 241 244 245 251 242 239 243 251 223 243 246 244
392 402 405 411 412 397 380 361 363 354 354 368 366 358 345 331 334 325 313 298 280 283 277 277 273 262 264 261 251 259 259 264 260 259 255 248 252 257 278 245 258 256 268 275 309 298 293
412 391 383 383 381 385 396 398 396 395 368 347 346 349 345 350 344 344 340 336 339 333 345 331 330 315 310 307 300 305 280 285 276 277 307 280 290 279 286 313 339 348 290 321 313 316 303
333 335 391 374 372 369 368 382 374 375 367 376 377 377 352 341 339 332 331 328 329 328 328 319 319 316 322 316 312 315 325 320 317 319 344 341 351 342 342 336 341 334 322 269 314 314 288
342 332 325 379 385 373 366 359 356 359 361 368 366 365 363 371 369 350 332 327 330 322 326 324 318 334 330 329 325 325 330 352 347 345 352 345 348 347 341 339 332 334 324 317 314 309 302
343 337 324 315 317 317 318 324 336 347 359 353 352 351 354 367 361 354 355 360 354 352 354 346 343 351 352 328 329 330 327 331 330 330 335 338 331 325 333 336 336 341 343 334 337 330 324
350 340 329 318 312 316 311 300 309 321 365 369 378 349 346 340 336 341 353 359 353 352 345 346 345 339 336 322 323 335 337 304 298 315 314 322 324 314 305 305 311 318 316 322 315 307 298

GFSGBSN_2pvu_pres_174.txt.gz
Presure
129 154 161 135 95 167 154 164 181 190 179 148 179 161 163 141 131 140 155 165 135 154 154 172 161 141 189 169 166 170 170 175 174 140 167 167 163 175 136 169 161 170 147 164 148 127 119
188 114 141 155 160 162 148 172 175 175 166 190 172 163 135 149 156 152 151 121 156 160 133 166 176 158 177 152 162 175 180 171 153 163 164 169 161 161 134 146 159 137 143 164 167 178 152
136 175 166 165 175 157 158 155 162 189 169 175 125 162 151 163 181 189 169 190 167 164 160 170 147 166 137 182 179 185 172 144 166 169 155 163 171 172 162 137 160 135 161 147 134 134 174
178 170 167 172 177 176 178 173 160 161 154 169 160 155 135 157 160 175 156 162 133 153 167 163 181 149 170 160 149 159 148 172 135 172 143 171 164 151 173 171 139 158 161 178 147 196 157
189 150 142 173 176 172 161 167 173 175 171 160 152 159 154 152 156 156 160 169 148 168 153 149 161 149 158 167 159 145 171 151 160 129 175 157 172 167 176 153 174 166 168 116 146 167 186
168 162 140 138 123 167 195 166 173 162 125 167 170 173 164 142 154 164 163 166 153 144 172 168 175 173 142 176 157 174 162 161 177 150 157 159 172 155 181 167 158 172 157 157 171 154 148
169 170 181 185 145 137 156 137 146 165 196 163 138 133 171 170 155 169 167 150 178 161 153 202 172 156 158 156 191 181 159 177 162 166 159 155 170 162 190 170 196 151 152 161 168 166 145
189 172 181 173 170 173 164 194 153 132 176 165 138 196 168 172 161 164 172 176 178 153 146 147 187 151 148 161 151 151 180 162 166 153 170 161 163 197 191 146 160 175 133 174 152 161 178
164 149 174 170 182 186 198 132 166 199 183 172 162 169 169 152 188 182 167 163 163 159 191 162 161 182 162 154 172 160 169 192 154 168 168 159 149 149 158 155 159 170 156 164 149 168 174
165 158 182 171 182 193 182 167 175 164 187 195 158 157 179 191 173 180 169 179 160 159 165 176 163 153 155 161 177 158 189 163 175 168 143 159 189 154 148 168 168 169 168 176 171 154 186
182 176 185 209 175 194 201 161 155 178 160 197 165 169 173 175 184 168 167 163 163 173 194 176 182 174 166 160 174 155 161 187 146 149 165 160 160 155 165 167 168 161 178 159 162 184 175
176 189 189 200 176 212 186 198 202 185 177 169 215 160 206 191 177 178 178 173 189 164 174 150 160 180 154 163 148 150 172 159 159 182 178 167 166 192 185 152 155 159 165 181 175 182 156
190 194 190 168 183 193 198 186 153 163 147 171 177 209 178 186 154 168 164 178 165 154 157 161 178 189 180 183 165 186 165 173 162 160 164 152 160 170 180 172 173 149 159 164 182 162 160
187 179 189 208 187 197 192 180 184 187 179 180 188 173 170 173 173 193 184 173 192 196 183 178 193 176 177 177 190 169 155 171 158 163 168 164 165 165 159 167 194 190 159 158 167 163 161
175 170 193 204 176 192 165 187 188 159 158 144 149 163 145 152 171 166 174 175 182 188 171 157 178 171 147 171 179 180 202 188 172 214 224 165 166 216 219 191 158 165 206 185 186 181 190
199 188 207 209 211 208 199 190 182 201 198 183 199 213 204 181 195 159 186 210 189 193 170 185 201 192 175 177 208 190 184 212 189 171 231 235 191 212 208 221 206 213 213 184 189 184 202
246 224 232 223 221 217 209 209 189 195 153 154 194 191 183 179 180 179 174 189 175 177 178 203 190 225 205 208 207 220 219 226 233 241 239 236 218 203 195 205 218 217 202 199 195 197 212
268 283 260 288 241 223 213 231 208 227 202 208 186 209 200 207 189 205 205 212 210 211 206 211 238 186 243 208 238 206 234 229 230 239 229 227 205 231 220 200 228 201 219 223 210 212 200
256 262 259 256 278 271 250 270 251 253 233 233 236 222 208 203 220 221 215 202 211 217 210 220 231 232 224 224 219 227 222 231 227 230 220 202 222 206 232 216 219 222 244 215 238 221 212
277 272 230 235 236 247 245 241 254 267 266 267 239 237 234 218 217 219 211 213 235 224 244 249 232 224 230 223 223 226 225 226 218 208 210 219 221 222 231 237 220 216 222 233 214 211 220
479 466 429 318 308 289 266 242 251 244 230 250 267 240 263 236 260 245 238 239 243 251 243 252 257 244 254 241 228 246 232 203 209 216 212 214 213 233 229 215 221 225 233 219 214 225 225
381 416 469 468 464 447 447 376 415 342 339 316 248 261 239 230 245 254 251 228 229 215 225 237 234 228 227 224 230 218 217 223 218 212 219 221 232 221 235 238 232 235 229 230 139 223 231
329 352 362 378 421 448 446 433 409 417 390 411 403 387 370 367 286 274 261 257 225 230 253 224 226 229 239 247 245 259 235 254 252 254 248 254 250 257 256 241 239 250 129 246 243 234 227
308 308 312 355 372 371 404 424 424 416 414 412 395 388 372 387 383 371 353 325 317 312 294 279 285 269 257 258 267 264 266 262 259 263 253 249 251 247 255 256 262 265 251 253 250 248 253
329 334 338 342 362 354 366 359 401 405 393 394 385 382 382 378 366 368 362 351 351 332 328 324 332 323 307 304 294 291 311 293 289 294 288 285 282 276 276 263 300 314 288 281 290 287 285
337 335 335 340 342 352 352 364 352 383 383 403 391 374 366 362 363 353 350 344 345 344 332 336 336 327 316 312 291 321 305 325 337 292 285 324 325 311 307 313 315 323 314 313 321 325 333
339 335 335 336 336 340 345 348 351 344 375 376 366 374 362 359 358 354 347 341 343 343 336 327 323 328 322 320 316 313 320 325 320 315 315 313 301 289 315 303 316 308 312 317 329 329 344
341 337 337 331 328 328 338 346 348 344 327 365 361 357 358 359 357 359 352 349 345 339 334 327 320 321 321 318 324 322 323 316 318 314 310 316 317 307 307 302 303 321 311 307 298 292 296
348 338 337 329 325 325 327 341 343 328 376 359 356 351 349 346 342 343 343 344 347 352 349 345 338 328 326 335 325 326 324 326 324 317 318 328 319 339 312 309 306 292 291 290 292 303 307

GFSGBSN_2pvu_pres_180.txt.gz
Presure
116 105 162 133 166 142 135 144 163 167 122 121 112 141 155 163 169 160 167 166 169 159 154 178 157 147 144 170 179 179 146 175 175 178 171 153 164 150 183 160 160 175 172 173 165 180 175
136 145 161 128 175 135 111 171 162 164 149 142 174 138 121 132 115 160 159 182 152 164 165 151 164 165 172 175 169 178 162 164 168 175 150 169 184 166 170 155 172 160 153 170 174 164 177
119 122 146 127 132 174 172 148 164 143 171 174 172 184 180 188 182 153 115 168 159 163 159 162 166 150 170 171 178 173 176 175 161 161 151 147 152 167 179 160 162 162 168 166 152 156 128
110 176 178 184 173 180 184 154 185 165 133 166 149 180 172 168 136 169 161 143 170 170 159 151 151 163 160 170 156 168 171 163 149 159 133 160 167 146 174 171 158 170 172 160 164 140 160
137 101 181 150 157 171 181 166 135 163 164 163 171 172 150 175 163 158 174 164 176 162 167 149 164 157 151 170 169 168 159 171 164 163 168 163 166 167 175 162 156 173 183 168 164 180 162
171 119 178 177 161 102 149 159 151 173 143 173 182 170 177 161 171 173 172 170 175 180 159 171 144 153 161 167 161 168 172 155 159 168 162 164 168 151 151 168 165 170 143 146 174 168 175
177 133 204 218 188 186 207 175 187 183 126 178 173 185 160 146 184 135 170 167 171 189 181 157 168 157 176 179 165 172 168 161 173 173 157 173 165 166 158 174 161 175 168 165 158 164 171
185 149 152 181 146 158 157 149 142 178 182 183 174 176 172 141 165 185 179 179 160 166 181 166 161 170 163 183 168 180 179 147 170 177 164 183 172 176 183 162 158 173 178 164 170 170 154
191 213 177 205 182 194 164 202 174 194 177 144 178 164 137 162 170 175 180 177 185 201 178 175 164 164 171 181 180 131 173 163 158 150 181 155 173 168 168 169 177 173 180 164 184 166 180
200 173 208 173 205 204 194 185 183 202 181 174 185 184 161 177 185 178 178 178 196 184 166 147 176 152 175 156 170 150 179 180 180 173 174 188 163 161 160 156 163 148 169 171 174 166 174
190 183 192 170 178 209 165 145 188 181 213 167 189 181 198 209 174 178 161 187 161 175 171 148 188 184 202 190 155 179 175 172 171 176 180 147 165 159 167 165 158 154 159 167 160 167 170
198 201 183 193 167 185 190 185 165 182 185 182 173 170 166 175 214 172 203 169 187 198 180 156 187 168 171 197 196 174 165 177 181 178 170 155 173 175 156 163 160 168 173 161 173 169 168
197 187 189 187 200 200 195 186 192 189 205 193 188 186 165 190 170 207 179 168 164 182 157 189 198 172 174 164 189 168 166 182 183 182 178 165 191 173 169 172 171 167 165 171 168 165 158
193 199 206 200 179 215 178 159 220 215 176 202 177 177 197 167 165 184 169 192 176 153 168 194 182 205 183 177 147 187 178 183 170 161 173 172 178 165 184 180 159 177 169 170 172 174 182
196 210 189 213 242 226 231 262 183 163 226 236 224 182 218 170 146 166 164 166 203 166 162 200 175 198 184 185 179 163 180 167 172 180 173 162 159 174 167 176 181 148 163 159 174 163 164
230 254 263 260 267 244 217 248 260 257 298 270 261 203 247 204 215 193 185 188 174 182 171 185 177 199 194 229 193 184 201 176 164 166 170 158 164 174 171 163 153 156 165 178 170 173 170
234 238 245 260 264 256 240 261 232 234 230 253 256 263 254 262 257 233 249 230 206 204 200 201 203 215 215 229 211 226 220 239 197 219 165 200 170 167 160 158 186 174 180 170 165 184 165
248 250 254 256 254 256 255 251 260 246 212 225 255 245 199 250 255 250 245 245 243 254 235 245 231 229 225 223 217 208 208 206 206 205 224 206 207 203 214 192 209 205 247 240 214 212 212
312 282 292 284 279 278 269 265 267 266 280 276 251 272 239 227 217 227 239 251 250 242 241 230 243 243 232 227 235 239 219 212 208 204 213 218 214 223 226 218 206 209 213 222 222 216 219
355 355 368 376 455 405 413 383 302 295 277 281 270 257 258 231 249 222 243 231 228 236 250 242 227 252 237 246 243 238 224 225 226 222 215 213 211 212 225 218 221 236 225 226 228 222 217
332 332 332 328 314 361 359 330 353 436 429 312 294 290 287 269 267 251 224 225 237 215 217 225 240 257 259 258 233 191 239 238 238 248 242 236 230 243 247 238 239 242 226 233 230 228 220
307 308 309 319 315 297 322 349 361 341 303 455 391 434 414 316 319 277 264 267 252 227 251 230 238 223 236 238 252 232 253 263 194 249 220 225 253 196 201 213 236 253 257 197 257 251 257
460 308 302 295 293 306 300 294 311 312 324 347 367 437 407 441 447 443 425 441 419 293 269 264 259 250 233 233 239 239 244 230 228 243 260 258 247 240 227 248 218 241 236 233 224 215 222
438 467 425 303 293 283 286 296 286 288 293 297 297 311 316 318 328 381 438 419 365 371 391 356 297 281 273 268 251 250 254 239 241 253 264 248 248 237 241 241 239 168 239 255 242 272 249
451 496 417 408 356 293 285 280 283 286 285 287 291 289 300 301 311 327 382 333 407 395 384 367 375 376 365 332 350 328 352 338 304 262 315 270 261 291 265 267 264 270 112 268 276 297 292
440 494 424 399 387 345 295 289 283 282 286 287 290 288 290 301 376 416 410 395 389 381 378 353 358 339 352 352 334 331 333 300 329 329 323 312 321 302 300 308 326 325 325 314 313 323 313
420 490 405 397 373 354 333 312 292 291 292 292 296 299 345 369 368 388 392 381 384 376 370 360 350 343 338 330 340 347 355 334 320 321 313 307 311 309 306 316 307 304 303 308 314 326 310
415 458 414 385 369 355 336 324 321 318 317 318 320 345 340 355 345 366 378 367 369 367 363 353 347 343 325 323 331 329 332 333 335 330 324 303 295 290 289 300 310 313 301 303 290 290 316
420 454 399 377 360 346 336 326 322 322 323 326 334 337 342 336 338 360 370 361 362 353 352 342 339 330 333 331 325 313 312 320 331 333 312 296 290 291 287 286 290 288 292 291 285 293 287

GFSGBSN_2pvu_pres_183.txt.gz
Presure
120 124 118 138 124 128 127 129 128 151 174 118 106 160 167 140 170 176 128 160 169 170 164 165 109 174 120 176 149 172 144 149 164 162 173 172 171 171 151 150 169 173 172 163 168 175 153
145 102 121 130 121 111 118 120 125 167 105 107 168 156 166 179 127 169 139 121 95 140 167 158 150 163 164 172 152 149 167 164 153 170 143 155 157 158 166 170 164 173 157 162 169 167 166
120 126 128 189 150 185 147 193 182 141 148 167 172 168 111 164 139 153 156 175 137 133 198 187 182 157 172 142 145 174 165 161 159 151 161 151 167 177 182 178 153 160 164 166 163 153 183
139 99 141 174 159 155 165 167 190 184 162 164 158 157 178 183 134 182 175 148 176 172 174 155 162 165 165 171 165 162 162 160 170 163 155 173 174 167 166 166 164 170 171 163 166 166 171
148 160 195 189 181 166 183 187 89 169 177 178 157 176 174 184 182 179 164 177 174 178 153 160 139 172 158 142 161 172 170 170 168 168 164 161 172 171 176 173 174 160 173 171 157 167 175
181 201 206 201 170 181 169 177 180 177 162 160 185 137 123 119 187 181 173 163 170 159 162 163 176 162 168 159 175 172 161 161 164 172 171 168 162 167 176 166 146 174 175 174 176 162 169
169 178 180 188 211 197 198 202 186 173 177 169 176 216 205 198 189 165 136 145 176 171 172 171 162 168 171 174 175 170 147 141 171 178 173 168 165 152 149 182 177 177 149 176 166 175 155
191 174 200 177 187 179 141 215 197 170 163 188 164 160 218 176 174 188 171 182 179 164 172 173 159 173 166 172 171 162 155 180 183 175 171 166 166 172 160 161 179 165 172 171 184 166 158
152 202 188 178 211 215 185 179 163 183 186 181 189 176 149 206 183 136 209 186 192 159 181 137 174 153 161 175 169 161 153 181 177 171 156 164 167 180 172 182 167 179 175 177 160 167 166
222 155 190 174 187 190 170 168 183 171 143 180 177 183 198 186 160 199 159 166 154 186 187 170 169 173 185 174 184 167 162 166 174 186 180 168 174 162 169 172 155 164 168 170 178 168 166
201 214 199 193 210 178 206 180 205 183 210 185 175 170 158 181 199 181 139 168 202 185 182 181 180 185 167 152 151 172 155 172 192 176 161 169 214 157 182 181 168 151 165 178 176 171 172
198 203 203 198 201 197 197 195 193 176 160 192 172 184 195 179 177 190 187 167 188 176 167 177 188 99 105 192 167 171 167 169 162 184 179 151 163 180 160 167 169 169 175 165 178 164 185
191 191 179 205 190 222 194 199 199 195 207 177 201 201 181 206 181 181 175 189 164 198 180 176 172 184 190 170 173 182 165 166 180 167 170 176 160 173 157 172 163 169 167 177 165 166 171
205 173 199 202 182 222 183 185 206 179 216 204 174 181 200 199 170 177 200 213 213 163 262 198 241 211 201 211 166 179 151 184 191 200 172 167 174 159 169 154 168 173 168 154 172 172 162
194 188 190 201 194 190 199 203 193 212 207 198 178 205 180 198 165 231 231 237 181 248 216 196 177 177 172 177 205 206 177 218 154 175 214 174 189 169 163 172 169 159 164 172 163 166 186
214 218 209 213 214 209 204 212 195 229 216 223 212 191 226 240 185 243 250 212 209 241 240 183 211 242 245 238 205 210 238 243 170 173 159 207 178 159 156 183 173 167 167 166 166 165 168
237 239 249 246 240 237 240 259 248 264 258 240 263 254 250 244 240 235 223 243 241 246 235 247 198 231 260 233 239 226 224 218 229 209 208 218 217 207 182 191 222 194 218 181 167 200 166
279 275 266 273 238 266 255 264 253 263 266 261 250 236 239 239 241 234 231 236 238 239 232 230 219 236 245 253 253 244 235 229 234 217 219 231 208 214 216 216 208 216 209 214 194 239 185
264 282 300 295 286 277 276 279 267 285 263 264 267 279 267 254 242 237 229 229 237 235 237 239 261 226 200 245 239 262 250 237 213 224 184 220 220 213 213 213 204 207 212 197 201 201 193
318 322 324 332 321 319 325 330 339 360 444 419 398 390 399 350 335 288 262 265 255 258 258 251 254 266 245 230 236 230 244 213 254 230 254 248 213 234 228 223 212 207 211 210 213 203 202
327 327 331 335 318 321 326 328 282 277 276 313 331 423 408 387 391 400 342 347 291 267 259 255 254 245 248 262 245 239 231 224 243 208 246 233 229 265 249 243 247 236 220 227 238 234 220
333 331 318 308 306 309 302 296 295 299 297 311 286 311 385 404 395 390 388 390 396 280 276 271 254 248 250 250 232 240 222 219 236 237 246 227 249 208 216 219 234 249 247 251 226 232 244
311 308 307 326 337 394 433 428 369 300 286 289 296 309 293 304 316 397 397 392 333 409 432 427 282 275 269 264 247 233 244 227 230 231 228 228 235 225 227 239 233 229 200 192 219 228 220
475 468 445 427 416 387 392 404 397 355 315 288 287 281 293 294 294 293 299 373 381 386 438 339 413 421 349 276 272 270 254 249 250 246 250 249 255 243 242 245 246 255 243 238 236 229 237
456 434 429 422 416 463 405 398 384 358 331 311 276 281 284 287 284 280 282 281 291 294 297 303 361 403 399 400 361 291 283 262 263 258 248 249 257 256 256 254 256 255 249 210 250 255 112
413 394 408 414 410 442 420 385 371 361 338 322 305 280 273 278 282 284 281 286 285 287 295 426 398 307 367 365 373 355 358 357 346 346 275 269 265 266 264 274 291 279 265 316 321 100 331
422 413 416 411 476 416 392 370 356 349 335 320 315 293 285 280 281 285 286 286 301 412 411 409 412 392 367 356 345 346 365 359 345 344 332 310 298 291 261 286 302 311 309 303 300 320 336
425 410 420 408 426 407 371 361 350 336 327 321 312 308 297 291 293 291 302 333 388 387 388 388 379 382 373 362 339 328 327 331 327 339 317 317 330 344 331 331 312 318 287 288 300 337 324
412 404 409 452 400 388 362 351 337 327 323 319 312 312 314 314 322 342 347 353 340 354 357 368 367 363 353 361 339 323 324 325 340 343 318 303 301 298 301 311 301 307 297 311 304 298 291

GFSGBSN_2pvu_pres_186.txt.gz
Presure
137 136 119 135 141 123 119 175 133 127 129 142 139 133 173 190 113 116 135 183 183 159 180 172 191 170 164 160 167 99 169 103 142 151 148 172 176 153 167 164 177 176 159 160 138 181 180
155 108 135 118 177 137 121 117 143 125 172 152 143 118 159 159 198 174 183 188 192 183 169 165 167 180 139 99 176 176 187 168 186 169 165 176 176 170 167 170 174 155 176 175 134 148 187
141 145 136 127 143 145 148 94 145 144 143 90 155 143 168 163 186 135 102 95 184 181 197 137 189 170 177 147 155 135 138 176 155 163 175 172 168 175 169 169 155 166 168 164 164 182 159
127 128 185 132 128 121 167 204 164 169 157 167 163 187 173 195 192 192 176 113 180 141 157 161 168 152 157 143 165 157 169 162 163 173 152 169 161 170 164 175 167 166 173 181 177 150 162
154 149 192 185 139 200 172 188 177 191 176 123 173 179 192 188 156 132 177 179 169 178 171 174 173 148 163 164 174 181 172 168 162 162 162 169 176 169 154 175 174 179 184 171 166 171 169
166 187 194 193 180 193 176 175 181 173 173 169 203 185 142 173 161 180 187 167 162 166 178 164 167 181 176 178 172 173 178 171 171 161 145 171 165 164 176 175 179 169 180 176 169 137 183
195 200 202 176 201 146 188 171 170 182 90 177 171 172 180 189 189 205 152 162 149 177 175 194 198 178 161 182 179 174 170 176 134 179 170 167 168 166 158 185 184 153 148 180 170 160 167
166 172 185 192 183 210 193 197 200 194 187 173 192 173 191 163 183 192 200 188 178 175 173 186 178 190 162 188 170 172 156 151 175 171 90 181 166 177 169 165 165 161 173 176 173 175 171
199 193 154 181 191 185 210 179 189 199 179 180 193 186 174 163 205 184 226 167 180 161 183 182 161 145 172 181 164 168 163 168 169 167 178 173 158 164 173 182 158 158 161 184 179 166 180
197 182 179 197 204 186 162 175 202 197 180 226 227 171 191 190 216 189 186 187 184 177 169 190 189 164 188 165 171 176 176 165 168 163 162 157 173 182 163 159 183 188 187 178 185 158 186
198 200 205 202 211 193 209 159 204 215 184 207 169 177 203 191 162 217 191 184 177 171 165 181 197 186 221 164 151 170 155 154 166 173 172 165 177 171 179 132 165 154 181 167 181 182 171
200 208 182 177 204 177 190 175 205 196 193 213 185 200 196 177 188 192 199 201 192 177 173 213 148 171 180 91 81 146 106 161 169 173 181 170 177 182 175 169 178 175 164 177 162 166 165
194 200 207 194 199 182 183 180 192 198 199 200 188 186 190 187 213 173 202 191 191 174 179 173 186 174 206 180 181 177 192 179 173 188 165 177 153 177 176 182 173 179 186 159 166 176 173
197 180 193 172 201 199 195 179 182 188 194 201 203 184 205 179 201 189 198 185 177 196 190 185 174 178 218 197 194 151 151 185 201 196 190 227 73 181 156 162 178 178 182 174 183 175 191
213 207 207 191 205 202 187 178 204 202 192 206 202 194 197 177 186 182 179 175 187 190 196 205 212 196 224 183 200 210 184 222 178 216 202 165 259 214 201 196 193 172 175 175 164 176 169
210 218 246 252 233 234 228 225 220 213 185 210 206 215 222 225 200 222 216 222 231 224 197 217 215 212 203 196 198 221 203 249 211 239 236 196 249 249 177 186 209 216 208 175 169 188 172
256 240 251 257 257 263 266 261 254 254 246 250 245 238 237 224 222 223 227 246 240 233 234 229 231 216 235 241 239 243 258 239 231 231 231 206 236 202 207 240 236 220 238 223 223 173 199
278 275 277 278 267 271 271 273 267 244 248 261 259 262 271 271 273 264 253 253 253 247 245 248 250 243 238 240 236 257 226 250 221 215 230 230 230 231 220 251 236 229 225 219 222 225 235
290 294 276 290 299 279 315 301 257 271 276 263 275 269 248 238 278 278 275 257 245 242 242 235 236 232 227 232 237 246 241 235 226 220 230 225 230 213 226 237 229 238 231 217 218 206 209
363 329 314 311 328 326 317 327 335 340 351 338 347 352 356 361 367 369 289 283 271 260 250 247 252 253 245 249 249 246 246 240 241 239 233 227 219 241 258 214 216 235 231 195 198 209 211
303 306 310 306 315 337 342 353 348 333 300 299 292 296 301 290 285 283 304 314 330 425 413 403 323 280 268 265 259 251 249 251 243 244 240 232 245 248 252 241 235 248 210 228 230 221 212
302 309 315 312 305 296 289 330 337 326 322 321 319 309 308 305 296 294 296 282 266 268 266 412 404 396 328 300 285 270 268 264 268 269 258 255 243 244 240 256 232 247 247 244 220 256 258
311 309 304 315 334 325 312 310 310 313 317 309 310 307 303 289 293 288 282 291 288 295 284 370 386 389 393 384 319 290 282 277 275 273 274 265 255 246 246 244 233 242 237 227 189 217 228
323 331 323 322 409 465 473 450 435 370 298 294 293 291 291 331 355 341 312 269 275 276 287 297 395 393 385 386 387 395 321 302 288 274 268 263 263 256 264 244 241 242 247 241 246 233 218
412 428 421 475 455 446 442 426 416 408 392 386 371 387 380 371 350 328 323 312 269 275 280 278 282 303 306 317 343 433 437 435 319 278 275 281 258 253 257 267 259 259 255 247 235 237 241
428 421 417 445 418 435 420 414 401 395 385 376 368 362 365 354 336 323 312 308 274 282 275 286 274 281 275 295 298 309 323 401 403 387 333 266 255 254 257 259 264 257 263 252 255 254 244
414 425 439 411 401 387 409 399 390 393 387 364 359 351 347 338 326 316 305 304 284 266 267 276 271 274 272 267 289 290 299 306 367 358 372 344 301 290 275 271 277 269 272 274 255 278 275
473 486 419 414 398 399 406 415 402 379 366 352 343 337 337 325 317 313 308 304 307 288 277 273 277 287 368 389 400 352 361 350 326 359 359 361 325 308 308 297 290 286 295 281 274 270 291
449 435 414 395 401 409 436 389 378 364 349 332 333 327 319 318 315 312 307 305 305 302 299 305 353 373 386 373 371 382 349 331 336 327 342 345 351 356 316 305 301 291 278 279 280 288 280